Powrót do katalogu

STARLINK-32457

AktywnyŁącznośćVLEO
NORAD 61717·PAYLOAD·🇺🇸 United States

Wystrzelony Oct 30, 2024 z Cape Canaveral Space Force Station

Loading…

Następne Przeloty (najbliższe 24 godziny)

TLE

ŚwieżeSource: CelesTrak SupGP

Epoka: Sep 15, 2026, 03:25 UTC

1 61717C 24196L   26258.14284722  .00014194  00000+0  41922-3 0  2584
2 61717  53.1593 298.8567 0001044  76.6460  74.5325 15.34394357    14

Śledź STARLINK-32457 w czasie rzeczywistym z AllMySat

Download on the App Store